Location: Sungai Pangei
(2.6500°N, 113.9333°E)
Time: 20:28:37
(UTC+00:00)

Daily predictions for brighter satellites

Satellite Brightness Start Highest point End
(mag) Time Altitude Azimuth Time Altitude Azimuth Time Altitude Azimuth
Cosmos 2218 Rocket 4.1 12:06:55 10° S 12:13:01 69° W 12:19:06 10° N
Intelsat 5-1 Rocket 4.2 12:16:42 10° NW 12:19:35 31° N 12:19:35 31° N
Cosmos 1937 Rocket 4.3 12:18:35 10° SSW 12:23:15 48° W 12:23:15 48° W
COSMOS 2455 3.7 12:30:21 10° NW 12:35:49 47° W 12:35:49 47° W
ARIANE 5 DEB (SYLDA) 4.5 12:39:08 10° W 12:49:21 49° WSW 12:49:21 49° WSW
ATLAS 2AS CENTAUR R/B 4.4 19:26:32 22° SSE 19:30:02 31° ESE 19:36:39 10° NE
CZ-3 Stage 3 3.5 19:57:18 43° SSE 19:57:18 43° SSE 20:09:05 10° SE
ATLAS 5 CENTAUR R/B 3.3 20:36:09 26° N 20:37:56 49° ENE 20:46:42 10° SE
Ariane H10 2.8 20:38:31 55° WSW 20:39:41 84° S 20:58:34 10° E
MOS 1 Rocket 3.1 20:39:26 10° S 20:44:17 76° WSW 20:47:10 23° NNW
Spot 1 4.5 20:39:36 10° S 20:43:57 54° WSW 20:43:57 54° WSW
Aurora 2 Rocket 3.8 20:45:48 31° SSW 20:46:01 31° SSW 20:51:12 10° SE
Meteor 1-11 Rocket 3.7 20:42:05 10° N 20:47:50 90° E 20:53:27 10° S
Meteor 1-18 Rocket 4.2 20:44:24 10° S 20:50:08 82° E 20:55:45 10° N
Centaur AC-146 3.2 20:53:14 32° SW 20:53:48 33° SW 20:56:29 10° SSE
Cosmos 1943 Rocket 2.9 20:50:40 10° N 20:56:09 53° ENE 21:01:36 10° SSE
SL-08 R/B 3.7 20:53:00 10° S 20:57:02 39° WSW 20:57:02 39° WSW
ARIANE 3 DEB 3.5 20:57:43 27° S 20:57:43 27° S 20:59:40 10° SE
GENESIS II 4.1 20:57:35 48° NW 20:58:28 66° WSW 21:02:23 10° SSE
USA 267 3.6 20:52:44 10° NE 20:59:11 67° SE 21:05:41 10° SSW
Cosmos 2315 Rocket 3.9 20:53:33 10° S 20:59:54 75° W 21:06:15 10° N
Cosmos 1707 Rocket 3.9 21:00:46 25° SW 21:02:47 41° W 21:06:58 10° NNW
Cosmos 1862 Rocket 3.4 20:59:28 10° S 21:03:47 88° W 21:08:07 10° N
ARIANE 5 DEB (SYLDA) 4.3 21:01:45 23° W 21:08:47 59° SSW 21:12:23 10° ESE
Meteor 1-31 Rocket 2.9 21:05:59 10° NNE 21:09:47 74° E 21:13:34 10° S
BREEZE-M DEB (TANK) 2.0 21:11:12 25° SW 21:12:47 70° NW 21:15:03 10° NE
Cosmos 1486 Rocket 4.0 21:14:23 10° NNW 21:19:37 61° WSW 21:24:49 10° S
Cosmos 2369 Rocket 3.9 21:15:10 10° N 21:20:11 35° ENE 21:25:13 10° SE
ATLAS 2AS CENTAUR R/B 3.5 21:14:10 11° SW 21:20:43 34° WNW 21:27:39 10° N
Cosmos 1743 2.7 21:17:54 10° NNW 21:21:40 59° W 21:25:26 10° S
GPS 2-12 Rocket1 3.4 21:20:13 22° W 21:22:54 49° NNW 21:27:20 10° NE
Envisat 2.9 21:18:05 10° N 21:23:08 77° WNW 21:28:12 10° SSW
Ariane H10+ 4.3 21:28:15 10° SW 21:30:17 16° S 21:31:47 10° SE
Hubble Space Telescope 3.5 21:28:36 10° S 21:30:18 12° SSE 21:32:00 10° SE
Cosmos 2297 3.9 21:30:43 10° NNW 21:36:10 47° WSW 21:41:37 10° S
YAOGAN 6 3.1 21:34:33 10° NNW 21:37:43 33° W 21:40:53 10° SW
Cosmos 1763 Rocket 3.6 21:34:31 10° SSW 21:39:42 55° WNW 21:44:51 10° N
Cosmos 1536 4.3 21:37:54 10° NW 21:40:25 16° W 21:42:58 10° SW
Cosmos 1869 Rocket 4.4 21:37:28 10° NW 21:41:17 28° W 21:45:08 10° SSW
BLOCK DM-SL R/B 3.1 21:36:55 11° W 21:41:33 65° S 21:46:04 10° E
H-2A R/B 3.5 21:39:12 10° NNW 21:42:34 29° WNW 21:45:55 10° SW
Cosmos 1975 4.1 21:39:30 10° NNE 21:43:23 47° E 21:47:19 10° SSE
Cosmos 1709 Rocket 4.0 21:39:11 10° N 21:45:18 74° W 21:51:32 10° S
BREEZE-M DEB (TANK) 4.1 21:44:07 10° WNW 21:47:05 15° WSW 21:49:01 10° SSW
Cosmos 1733 Rocket 3.3 21:43:14 10° N 21:47:39 78° E 21:52:05 10° S
Gbstr 26 Del rocket 3.8 21:41:55 10° NW 21:48:14 58° WSW 21:53:20 10° SSE
Intelsat 5-2 Rocket 3.6 21:45:26 10° W 21:48:16 45° NNW 21:54:37 10° NE
deb Kosmos-1763 3.8 21:50:23 10° SSW 21:53:47 87° WNW 21:57:11 10° NNE
NOSS 2-1 (D) 4.4 21:49:31 10° SSW 21:54:52 58° ESE 21:58:46 10° NE
CENTAUR R/B 4.3 21:47:30 10° N 21:56:12 54° ENE 22:04:32 10° SE
